Regional Weather Roundup
Issued by NWS State College, PA

Home | Current Version | Previous Version | Graphics & Text | Print | Product List | Glossary Off
Versions: 1 2 3 4 5 6 7 8 9 10 11 12 13 14 15 16 17 18 19 20 21 22 23 24 25 26 27 28 29 30 31 32 33 34 35 36 37 38 39 40 41 42 43 44 45 46 47 48 49 50

000
ASUS41 KCTP 280703
RWRCTP

REGIONAL WEATHER ROUNDUP
NATIONAL WEATHER SERVICE STATE COLLEGE PA
300 AM EDT SUN MAY 28 2017

Note: "fair" indicates few or no clouds below 12,000 feet with no
significant weather and/or obstructions to visibility.

* = STATION THAT DOES NOT REPORT PRECIPITATION /E.G. RAIN...SNOW...ETC/
    THUNDER OR FOG.

PAZ002>004-007>009-013>016-020>023-029>032-280800-
WESTERN PENNSYLVANIA

CITY           SKY/WX    TMP DP  RH WIND       PRES   REMARKS
ERIE           CLOUDY    54  49  83 CALM      29.86S
MEADVILLE      CLOUDY    51  50  96 CALM      29.86F
FRANKLIN*      CLOUDY    52  48  87 NE3       29.87F
NEW CASTLE     FAIR      54  54 100 CALM      29.87S
BEAVER COUNTY  NOT AVBL
BUTLER*        CLOUDY    55  54  94 CALM      29.86F
PITTSBURGH INT CLOUDY    60  59  96 CALM      29.84F
PITTSBURGH     FOG       60  58  92 NE3       29.83F VSB 1/4
INDIANA*       MOCLDY    55  55 100 CALM      29.89F FOG
LATROBE        FOG       54  54 100 CALM      29.86F VSB 3/4
WASHINGTON CO* CLOUDY    54  52  94 CALM      29.86F VSB 1/4
$$

PAZ004>006-010>012-017>019-024>028-033>037-041-042-045-046-049>053-280800-
CENTRAL PENNSYLVANIA

CITY           SKY/WX    TMP DP  RH WIND       PRES   REMARKS
BRADFORD       CLEAR     48  48 100 CALM      29.90S
DUBOIS         FOG       54  52  93 CALM      29.88F VSB 1/2
CLEARFIELD     FOG       53  53 100 E5        29.89F VSB 3/4
JOHNSTOWN      FOG       56  55  97 SE3       29.89F VSB 3/4
ALTOONA        FOG       59  59 100 CALM      29.89F VSB 1/4
STATE COLLEGE  FOG       56  56  99 CALM      29.88F VSB 1
WILLIAMSPORT   MOCLDY    61  57  87 CALM      29.87F
SELINSGROVE    PTCLDY    54  54 100 CALM      29.89S FOG
FT INDIANTOWN  FOG       54  54 100 CALM      29.88F VSB 1
CAPITAL CITY   CLEAR     56  53  90 CALM      29.88F FOG
HARRISBURG     PTCLDY    58  57  97 CALM      29.88F FOG
YORK           FOG       57  57 100 CALM      29.88S VSB 1/4
$$

PAZ038>040-043-044-047-048-054-055-060>062-067>071-280800-
EASTERN PENNSYLVANIA

CITY           SKY/WX    TMP DP  RH WIND       PRES   REMARKS
SCRANTON       CLOUDY    61  56  83 NE7       29.89F
MOUNT POCONO   CLOUDY    57  55  93 CALM      29.92F
ALLENTOWN      CLEAR     55  52  89 CALM      29.89F
QUAKERTOWN*    SUNNY     52  52 100 CALM      29.91F
READING        CLEAR     56  55  97 CALM      29.88F
LANCASTER      FOG       57  57 100 SE3       29.88F VSB 1/2
COATESVILLE    SUNNY     57  57 100 CALM      29.89F FOG
POTTSTOWN      CLEAR     54  53  97 CALM      29.90F FOG
BLUE BELL      CLEAR     54  54 100 CALM      29.90F
DOYLESTOWN     CLEAR     55  54  96 NE3       29.89F
WILLOW GROVE   NOT AVBL
NORTH PHILA    CLEAR     61  57  87 NE3       29.89F
PHILADELPHIA   PTCLDY    62  59  90 S5        29.89F
$$



USA.gov is the U.S. government's official web portal to all federal, state and local government web resources and services.